TimeMDT,TemperatureF,Dew PointF,Humidity,Sea Level PressureIn,VisibilityMPH,Wind Direction,Wind SpeedMPH,Gust SpeedMPH,PrecipitationIn,Events,Conditions,WindDirDegrees,DateUTC
12:21 AM,30.0,25.0,82,29.78,9.0,SSE,5.8,-,N/A,,Mostly Cloudy,160,2014-04-01 06:21:00
12:55 AM,30.9,25.0,79,29.78,10.0,Calm,Calm,-,N/A,,Overcast,0,2014-04-01 06:55:00
1:08 AM,30.0,24.1,79,29.77,10.0,Calm,Calm,-,N/A,,Mostly Cloudy,0,2014-04-01 07:08:00
1:35 AM,28.9,24.1,82,29.76,10.0,Calm,Calm,-,N/A,,Mostly Cloudy,0,2014-04-01 07:35:00
1:55 AM,28.0,24.1,85,29.77,10.0,Calm,Calm,-,N/A,,Scattered Clouds,0,2014-04-01 07:55:00
2:55 AM,25.0,21.9,88,29.76,10.0,Calm,Calm,-,N/A,,Mostly Cloudy,0,2014-04-01 08:55:00
3:55 AM,24.1,21.9,91,29.75,10.0,Calm,Calm,-,N/A,,Clear,0,2014-04-01 09:55:00
4:35 AM,26.1,23.0,88,29.71,10.0,Calm,Calm,-,N/A,,Mostly Cloudy,0,2014-04-01 10:35:00
4:55 AM,24.1,21.9,91,29.74,10.0,Calm,Calm,-,N/A,,Overcast,0,2014-04-01 10:55:00
5:55 AM,27.0,24.1,89,29.73,10.0,Calm,Calm,-,N/A,,Overcast,0,2014-04-01 11:55:00
6:12 AM,27.0,24.1,89,29.69,10.0,Calm,Calm,-,N/A,,Overcast,0,2014-04-01 12:12:00
6:55 AM,24.1,21.9,91,29.73,10.0,Calm,Calm,-,N/A,,Scattered Clouds,0,2014-04-01 12:55:00
7:08 AM,24.1,21.9,91,29.69,10.0,NNW,3.5,-,N/A,,Mostly Cloudy,330,2014-04-01 13:08:00
7:55 AM,28.0,25.0,88,29.72,10.0,North,3.5,-,N/A,,Overcast,360,2014-04-01 13:55:00
8:29 AM,30.0,25.0,82,29.68,10.0,North,4.6,-,N/A,,Scattered Clouds,360,2014-04-01 14:29:00
8:55 AM,30.0,26.1,85,29.72,10.0,ENE,3.5,-,N/A,,Clear,60,2014-04-01 14:55:00
9:55 AM,30.9,25.0,79,29.72,10.0,Calm,Calm,-,N/A,,Overcast,0,2014-04-01 15:55:00
10:55 AM,36.0,25.0,64,29.70,10.0,Variable,3.5,-,N/A,,Scattered Clouds,0,2014-04-01 16:55:00
11:55 AM,39.0,24.1,55,29.68,10.0,Calm,Calm,-,N/A,,Scattered Clouds,0,2014-04-01 17:55:00
12:55 PM,39.9,23.0,51,29.66,10.0,Variable,3.5,-,N/A,,Overcast,0,2014-04-01 18:55:00
1:55 PM,41.0,25.0,53,29.65,10.0,Calm,Calm,-,N/A,,Overcast,0,2014-04-01 19:55:00
2:55 PM,44.1,24.1,45,29.63,10.0,North,5.8,-,N/A,,Overcast,10,2014-04-01 20:55:00
3:55 PM,45.0,24.1,44,29.62,10.0,Variable,6.9,-,N/A,,Overcast,0,2014-04-01 21:55:00
4:55 PM,45.0,23.0,42,29.60,10.0,North,11.5,-,N/A,,Overcast,10,2014-04-01 22:55:00
5:55 PM,44.1,24.1,45,29.60,10.0,NNE,10.4,-,N/A,,Overcast,30,2014-04-01 23:55:00
6:55 PM,42.1,27.0,55,29.63,10.0,ENE,9.2,-,N/A,,Overcast,60,2014-04-02 00:55:00
7:28 PM,39.0,30.9,73,29.61,10.0,SW,9.2,-,0.00,Rain,Light Rain,220,2014-04-02 01:28:00
7:39 PM,39.0,30.9,73,29.61,10.0,WSW,6.9,-,0.00,Rain,Light Rain,250,2014-04-02 01:39:00
7:55 PM,37.9,32.0,79,29.64,10.0,West,9.2,-,0.00,Rain,Light Rain,270,2014-04-02 01:55:00
8:29 PM,37.0,32.0,82,29.61,10.0,West,9.2,-,0.00,Rain,Light Rain,260,2014-04-02 02:29:00
8:51 PM,35.6,33.8,93,29.61,10.0,West,5.8,-,0.00,,Overcast,280,2014-04-02 02:51:00
8:55 PM,37.0,33.1,86,29.63,10.0,West,5.8,-,0.00,,Overcast,280,2014-04-02 02:55:00
9:55 PM,36.0,33.1,89,29.63,10.0,ENE,3.5,-,N/A,,Overcast,70,2014-04-02 03:55:00
10:55 PM,34.0,33.1,96,29.63,4.0,South,11.5,-,0.01,Snow,Light Snow,170,2014-04-02 04:55:00
10:58 PM,33.1,32.0,96,29.62,2.5,SSE,10.4,-,0.00,Snow,Light Snow,160,2014-04-02 04:58:00
11:06 PM,32.0,32.0,100,29.62,1.2,SSE,8.1,-,0.01,Snow,Light Snow,150,2014-04-02 05:06:00
11:17 PM,32.0,32.0,100,29.62,0.8,SE,9.2,-,0.02,Snow,Light Snow,130,2014-04-02 05:17:00
11:33 PM,32.0,32.0,100,29.62,1.0,ESE,6.9,-,0.04,Snow,Light Snow,110,2014-04-02 05:33:00
11:48 PM,32.0,32.0,100,29.62,1.5,ESE,9.2,-,0.05,Snow,Light Snow,120,2014-04-02 05:48:00
11:55 PM,32.0,32.0,100,29.63,1.0,SE,8.1,-,0.06,Snow,Light Snow,130,2014-04-02 05:55:00